Location: ?????????
(38.0736°N, 23.2119°E)
Time: 18:45:20
(UTC+00:00)

CZ-4C R/B - Pass Details

Date: 18 April 2024
Orbit: 530 x 1464 km, 63.4° (Epoch: 26 May)

Event Time Altitude Azimuth Distance (km) Brightness Sun altitude
Rises 18:45:40 0° 335° (NNW) 3,744 6.5 -18.7°
Reaches altitude 10° 18:48:41 10° 349° (N) 2,947 5.6 -19.2°
Maximum altitude 18:54:25 24° 42° (NE) 2,297 4.3 -20.2°
Enters shadow 18:58:15 18° 78° (ENE) 2,792 4.5 -20.8°
